User: anonymous   Login
Location: Unspecified
(0.0000°N, 0.0000°E)
Time: 04:56:54
(UTC+00:00)
Language:

USA 186 - Orbit

View from above orbital plane
View from above orbital plane
View from above satellite
View from above satellite

Ground track
Ground track

The orbit data is extracted from the following two-line orbital elements,

1 28888U 05042A   17265.79028405 0.00028000  00000-0  11756-3 0    07
2 28888  96.8509 303.2774 0131723 103.3099 256.6899 15.73304596    09
Epoch (UTC): 22 September 2017 18:58:00
Eccentricity: 0.0131723
inclination: 96.8509°
perigee height: 261 km
apogee height: 438 km
right ascension of ascending node: 303.2774°
argument of perigee: 103.3099°
revolutions per day: 15.73304596
mean anomaly at epoch: 256.6899°
orbit number at epoch: 0

The dashed part of the orbit path shows where the satellite is in the earth's shadow,  

DLR